Location: Parchey Bridge, Chedzoy
(51.1354°N, 2.9289°W)
Time: 01:47:28
(UTC+00:00)

ISS - Pass Details

Date: 28 February 2019
Orbit: 406 x 411 km, 51.6° (Epoch: 22 March)

Event Time Altitude Azimuth Distance (km) Brightness Sun altitude
Exits shadow 04:29:28 15° 138° (SE) 1,208 -1.2 -24.1°
Drops below altitude 10° 04:31:19 10° 104° (ESE) 1,467 -0.2 -23.8°
Sets 04:34:02 0° 80° (E) 2,332 1.5 -23.4°
